EW6113 Weather Reports


Display with metric or nautical units.
time (UTC)temp
F
wind
direction
speed
MPH
gust
MPH
rain 1hr
in
rain 24hr
in
rain mn
in
humidity
%
barometer
mb
20260507104504 54 59 0.0 3.0 0.00 0.00 0.00 96 1017.2
20260507103002 53 59 0.0 3.0 0.00 0.00 0.00 96 1017.4
20260507101501 52 62 2.0 4.0 0.00 0.00 0.00 95 1017.5
20260507100112 52 260 0.0 0.0 0.00 0.00 0.00 95 1017.6
20260507094601 52 235 0.0 0.0 0.00 0.00 0.00 94 1017.5
20260507093057 53 235 0.0 1.0 0.00 0.00 0.00 94 1017.6
20260507091555 53 235 1.0 3.0 0.00 0.00 0.00 94 1017.6
20260507090055 54 107 0.0 2.0 0.00 0.00 0.00 94 1017.7
20260507084550 54 107 0.0 3.0 0.00 0.00 0.00 94 1017.9
20260507083049 54 76 3.0 8.0 0.00 0.00 0.00 94 1018.1
20260507081548 54 96 3.0 7.0 0.00 0.00 0.00 94 1018.1
20260507080045 54 54 4.0 9.0 0.00 0.00 0.00 94 1018.3
20260507074543 54 75 2.0 10.0 0.00 0.00 0.00 94 1018.5
20260507073047 55 46 5.0 11.0 0.00 0.00 0.00 94 1018.5
20260507071539 55 59 4.0 10.0 0.00 0.00 0.00 94 1018.5
20260507070041 55 51 4.0 12.0 0.00 0.00 0.00 94 1018.5
20260507064544 55 77 4.0 13.0 0.00 0.00 0.00 94 1018.7
20260507063046 55 49 6.0 10.0 0.00 0.00 0.00 93 1018.5
20260507061539 55 80 6.0 12.0 0.00 0.00 0.00 93 1018.6
20260507060033 55 61 4.0 10.0 0.00 0.00 0.00 93 1018.6
20260507054535 55 64 4.0 11.0 0.00 0.00 0.00 92 1018.6
20260507053036 55 27 6.0 11.0 0.00 0.00 0.00 92 1018.7
20260507051532 55 71 4.0 11.0 0.00 0.00 0.00 92 1018.6
20260507050035 56 78 4.0 11.0 0.00 0.00 0.00 92 1018.8
20260507044533 56 57 5.0 13.0 0.00 0.00 0.00 92 1018.7
20260507043032 56 103 4.0 12.0 0.00 0.00 0.00 92 1018.6
20260507041541 56 69 5.0 11.0 0.00 0.00 0.00 92 1018.5
20260507040030 56 63 6.0 10.0 0.00 0.00 0.00 91 1018.3
20260507034537 56 59 6.0 11.0 0.00 0.00 0.00 91 1018.2
20260507033029 56 71 4.0 11.0 0.00 0.00 0.00 91 1018.2
20260507031527 56 53 5.0 12.0 0.00 0.00 0.00 90 1018.0
20260507030027 56 80 5.0 12.0 0.00 0.00 0.00 90 1017.9
20260507024530 57 77 3.0 13.0 0.00 0.00 0.00 89 1017.8
20260507023025 57 80 5.0 10.0 0.00 0.00 0.00 88 1017.8
20260507021525 57 106 6.0 12.0 0.00 0.00 0.00 88 1017.8
20260507020026 58 93 6.0 15.0 0.00 0.00 0.00 87 1017.7
20260507014525 59 69 8.0 14.0 0.00 0.00 0.00 85 1017.8
20260507013022 59 92 5.0 14.0 0.00 0.00 0.00 84 1017.8
20260507011521 60 78 5.0 12.0 0.00 0.00 0.00 82 1017.7
20260507010031 60 99 10.0 17.0 0.00 0.00 0.00 82 1017.7
20260507004520 60 56 8.0 15.0 0.00 0.00 0.00 83 1017.7
20260507003019 60 29 4.0 15.0 0.00 0.00 0.00 83 1017.7
20260507001517 61 113 8.0 14.0 0.00 0.00 0.00 81 1017.6
20260507000017 61 76 11.0 17.0 0.00 0.00 0.00 81 1017.6
20260506234535 61 63 8.0 16.0 0.00 0.00 0.00 80 1017.6
20260506233017 61 41 10.0 20.0 0.00 0.00 0.00 81 1017.5
20260506231514 61 75 9.0 21.0 0.00 0.00 0.00 81 1017.6
20260506230015 61 96 9.0 17.0 0.00 0.00 0.00 81 1017.6
20260506224523 61 72 8.0 15.0 0.00 0.00 0.00 81 1017.8
20260506223010 62 102 8.0 15.0 0.00 0.00 0.00 79 1018.0
20260506221512 62 70 9.0 15.0 0.00 0.00 0.00 80 1018.2
20260506220024 61 108 10.0 16.0 0.00 0.00 0.00 80 1018.3
20260506214609 61 64 10.0 16.0 0.00 0.00 0.00 81 1018.6
20260506213008 62 102 10.0 17.0 0.00 0.00 0.00 81 1018.7
20260506211516 62 109 8.0 15.0 0.00 0.00 0.00 80 1018.7
20260506210008 62 66 9.0 16.0 0.00 0.00 0.00 81 1018.8
20260506204506 62 83 9.0 16.0 0.00 0.00 0.00 81 1018.9
20260506203006 62 117 9.0 16.0 0.00 0.00 0.00 79 1018.9
20260506201505 62 103 9.0 16.0 0.00 0.00 0.00 80 1019.0
20260506200005 62 68 9.0 17.0 0.00 0.00 0.00 80 1019.0
20260506194504 63 116 9.0 18.0 0.00 0.00 0.00 79 1018.9
20260506193003 62 100 10.0 18.0 0.00 0.00 0.00 79 1019.1
20260506191502 62 108 8.0 17.0 0.00 0.00 0.00 79 1019.1
20260506190002 62 119 7.0 16.0 0.00 0.00 0.00 80 1019.1
20260506184501 62 121 10.0 17.0 0.00 0.00 0.00 78 1019.1
20260506183002 62 108 9.0 14.0 0.00 0.00 0.00 79 1019.2
20260506181626 62 67 7.0 16.0 0.00 0.00 0.00 79 1019.3
20260506180111 62 48 8.0 13.0 0.00 0.00 0.00 78 1019.3
20260506174601 62 101 7.0 16.0 0.00 0.00 0.00 76 1019.2
20260506173129 62 67 7.0 13.0 0.00 0.00 0.00 76 1019.3
20260506171603 62 82 9.0 16.0 0.00 0.00 0.00 74 1019.2
20260506170104 62 88 8.0 13.0 0.00 0.00 0.00 75 1019.1
20260506164556 62 76 5.0 11.0 0.00 0.00 0.00 77 1019.0
20260506163055 62 46 3.0 9.0 0.00 0.00 0.00 77 1018.9
20260506161551 61 81 4.0 7.0 0.00 0.00 0.00 79 1019.0
20260506160059 60 82 4.0 7.0 0.00 0.00 0.00 79 1019.1
20260506154548 59 80 4.0 7.0 0.00 0.00 0.00 81 1019.0
20260506153043 58 97 2.0 6.0 0.00 0.00 0.00 85 1019.1
20260506151539 56 90 0.0 0.0 0.00 0.00 0.00 89 1019.3
20260506150035 55 90 0.0 1.0 0.00 0.00 0.00 92 1019.4
20260506144533 53 138 0.0 0.0 0.00 0.00 0.00 94 1019.3
20260506143035 52 209 0.0 0.0 0.00 0.00 0.00 95 1019.2
20260506141530 51 209 0.0 0.0 0.00 0.00 0.00 97 1018.9
20260506140033 49 209 0.0 0.0 0.00 0.00 0.00 96 1018.8
20260506134527 48 209 0.0 0.0 0.00 0.00 0.00 96 1018.7
20260506133027 47 209 1.0 3.0 0.00 0.00 0.00 96 1018.7
20260506131541 47 209 2.0 3.0 0.00 0.00 0.00 95 1018.5
20260506130035 47 75 0.0 0.0 0.00 0.00 0.00 95 1018.5
20260506124523 47 75 0.0 2.0 0.00 0.00 0.00 95 1018.4
20260506123022 47 75 1.0 3.0 0.00 0.00 0.00 95 1018.5
20260506121523 47 304 0.0 1.0 0.00 0.00 0.00 95 1018.3
20260506120021 47 304 1.0 3.0 0.00 0.00 0.00 95 1017.9
20260506114521 47 304 1.0 3.0 0.00 0.00 0.00 95 1018.0
20260506113015 47 323 0.0 0.0 0.00 0.00 0.00 95 1018.2
20260506111513 48 345 0.0 0.0 0.00 0.00 0.00 95 1018.2
20260506110012 48 345 0.0 0.0 0.00 0.00 0.00 94 1018.3